EN

Hourly Weather Barretos

Today, 18 January, Monday

Time Temperature Precipitation Wind Pressure Humidity
00:00 +23°C° 0 mm 1 mps 712 mmHg 88%
01:00 +23°C° 0 mm 1 mps 711 mmHg 88%
02:00 +23°C° 0 mm 2 mps 711 mmHg 89%
03:00 +23°C° 0 mm 2 mps 711 mmHg 89%
04:00 +21°C° 0 mm 2 mps 711 mmHg 90%
05:00 +21°C° 0 mm 2 mps 711 mmHg 90%
06:00 +22°C° 0 mm 1 mps 711 mmHg 91%
07:00 +23°C° 0 mm 2 mps 712 mmHg 87%
08:00 +25°C° 0 mm 3 mps 712 mmHg 83%
09:00 +26°C° 0 mm 3 mps 713 mmHg 80%
10:00 +28°C° 0 mm 3 mps 713 mmHg 75%
11:00 +29°C° 0 mm 3 mps 713 mmHg 69%
12:00 +31°C° 0 mm 3 mps 713 mmHg 64%
13:00 +31°C° 0 mm 3 mps 712 mmHg 63%
14:00 +31°C° 0 mm 2 mps 712 mmHg 62%
15:00 +31°C° 0 mm 2 mps 711 mmHg 62%
16:00 +30°C° 0.2 mm 2 mps 711 mmHg 68%
17:00 +29°C° 0.2 mm 2 mps 711 mmHg 74%
18:00 +29°C° 0.2 mm 1 mps 710 mmHg 80%
19:00 +27°C° 0.4 mm 1 mps 711 mmHg 81%
20:00 +26°C° 0.4 mm 1 mps 711 mmHg 82%
21:00 +23°C° 0.4 mm 0 mps 711 mmHg 83%
22:00 +25°C° 0.9 mm 1 mps 712 mmHg 86%
23:00 +24°C° 0.9 mm 1 mps 712 mmHg 89%

Tomorrow, 19 January, Tuesday

Time Temperature Precipitation Wind Pressure Humidity
00:00 +24°C° 0.9 mm 1 mps 712 mmHg 92%
01:00 +23°C° 0.5 mm 2 mps 712 mmHg 93%
02:00 +23°C° 0.5 mm 2 mps 711 mmHg 94%
03:00 +23°C° 0.5 mm 2 mps 711 mmHg 95%
04:00 +21°C° 0 mm 2 mps 711 mmHg 95%
05:00 +21°C° 0 mm 2 mps 711 mmHg 95%
06:00 +21°C° 0 mm 2 mps 712 mmHg 95%
07:00 +23°C° 0 mm 2 mps 712 mmHg 91%
08:00 +25°C° 0 mm 3 mps 713 mmHg 87%
09:00 +26°C° 0 mm 3 mps 713 mmHg 83%
10:00 +28°C° 0.1 mm 3 mps 713 mmHg 76%
11:00 +29°C° 0.1 mm 3 mps 713 mmHg 70%
12:00 +32°C° 0.1 mm 4 mps 713 mmHg 64%
13:00 +31°C° 0.3 mm 3 mps 713 mmHg 63%
14:00 +31°C° 0.3 mm 3 mps 712 mmHg 63%
15:00 +31°C° 0.3 mm 3 mps 712 mmHg 62%
16:00 +31°C° 0.5 mm 2 mps 711 mmHg 67%
17:00 +30°C° 0.5 mm 1 mps 711 mmHg 73%
18:00 +29°C° 0.5 mm 1 mps 711 mmHg 78%
19:00 +27°C° 0.2 mm 1 mps 712 mmHg 81%
20:00 +26°C° 0.2 mm 1 mps 712 mmHg 83%
21:00 +24°C° 0.2 mm 2 mps 712 mmHg 86%
22:00 +24°C° 0.1 mm 2 mps 713 mmHg 87%
23:00 +24°C° 0.1 mm 2 mps 713 mmHg 88%

Day after tomorrow, 20 January, Wednesday

Time Temperature Precipitation Wind Pressure Humidity
00:00 +23°C° 0.1 mm 2 mps 713 mmHg 89%
01:00 +23°C° 0 mm 2 mps 713 mmHg 90%
02:00 +21°C° 0 mm 2 mps 713 mmHg 90%
03:00 +21°C° 0 mm 2 mps 712 mmHg 90%
04:00 +20°C° 0 mm 2 mps 712 mmHg 90%
05:00 +20°C° 0 mm 2 mps 712 mmHg 90%
06:00 +19°C° 0 mm 2 mps 712 mmHg 90%
07:00 +21°C° 0 mm 2 mps 713 mmHg 84%
08:00 +24°C° 0 mm 3 mps 713 mmHg 79%
09:00 +26°C° 0 mm 3 mps 714 mmHg 73%
10:00 +28°C° 0 mm 3 mps 714 mmHg 68%
11:00 +29°C° 0 mm 3 mps 714 mmHg 62%
12:00 +31°C° 0 mm 3 mps 714 mmHg 56%
13:00 +31°C° 0 mm 3 mps 713 mmHg 55%
14:00 +32°C° 0 mm 2 mps 713 mmHg 54%
15:00 +32°C° 0 mm 2 mps 712 mmHg 54%
16:00 +31°C° 0.2 mm 2 mps 712 mmHg 61%
17:00 +29°C° 0.2 mm 2 mps 711 mmHg 69%
18:00 +28°C° 0.2 mm 2 mps 711 mmHg 76%
19:00 +27°C° 0.1 mm 2 mps 711 mmHg 79%
20:00 +25°C° 0.1 mm 2 mps 712 mmHg 81%
21:00 +24°C° 0.1 mm 2 mps 712 mmHg 83%
22:00 +24°C° 0 mm 2 mps 712 mmHg 84%
23:00 +23°C° 0 mm 2 mps 713 mmHg 85%

21 January, Thursday

Time Temperature Precipitation Wind Pressure Humidity
00:00 +23°C° 0 mm 2 mps 713 mmHg 86%
01:00 +23°C° 0 mm 2 mps 712 mmHg 87%
02:00 +21°C° 0 mm 2 mps 712 mmHg 89%
03:00 +21°C° 0 mm 2 mps 712 mmHg 90%
04:00 +20°C° 0 mm 2 mps 712 mmHg 90%
05:00 +20°C° 0 mm 2 mps 712 mmHg 91%
06:00 +19°C° 0 mm 2 mps 712 mmHg 91%
07:00 +21°C° 0 mm 3 mps 713 mmHg 84%
08:00 +24°C° 0 mm 3 mps 714 mmHg 78%
09:00 +26°C° 0 mm 3 mps 714 mmHg 71%
10:00 +28°C° 0 mm 3 mps 714 mmHg 66%
11:00 +29°C° 0 mm 3 mps 714 mmHg 60%
12:00 +31°C° 0 mm 3 mps 714 mmHg 54%
13:00 +31°C° 0 mm 3 mps 714 mmHg 52%
14:00 +32°C° 0 mm 2 mps 713 mmHg 49%
15:00 +32°C° 0 mm 2 mps 713 mmHg 46%
16:00 +31°C° 0 mm 2 mps 713 mmHg 52%
17:00 +30°C° 0 mm 2 mps 712 mmHg 58%
18:00 +29°C° 0 mm 1 mps 712 mmHg 64%
19:00 +28°C° 0 mm 2 mps 713 mmHg 66%
20:00 +26°C° 0 mm 2 mps 713 mmHg 68%
21:00 +24°C° 0 mm 2 mps 713 mmHg 70%
22:00 +24°C° 0 mm 2 mps 713 mmHg 72%
23:00 +23°C° 0 mm 2 mps 714 mmHg 73%

22 January, Friday

Time Temperature Precipitation Wind Pressure Humidity
00:00 +23°C° 0 mm 2 mps 714 mmHg 75%
01:00 +21°C° 0 mm 2 mps 714 mmHg 77%
02:00 +21°C° 0 mm 2 mps 713 mmHg 78%
03:00 +21°C° 0 mm 2 mps 713 mmHg 80%
04:00 +20°C° 0 mm 2 mps 713 mmHg 81%
05:00 +20°C° 0 mm 2 mps 714 mmHg 82%
06:00 +20°C° 0 mm 2 mps 714 mmHg 84%
07:00 +23°C° 0 mm 2 mps 715 mmHg 80%
08:00 +25°C° 0 mm 3 mps 715 mmHg 75%
09:00 +26°C° 0 mm 3 mps 716 mmHg 71%
10:00 +28°C° 0.2 mm 3 mps 716 mmHg 68%
11:00 +29°C° 0.2 mm 3 mps 716 mmHg 64%
12:00 +30°C° 0.2 mm 4 mps 715 mmHg 61%
13:00 +31°C° 0.2 mm 3 mps 715 mmHg 59%
14:00 +31°C° 0.2 mm 2 mps 714 mmHg 56%
15:00 +31°C° 0.2 mm 2 mps 714 mmHg 54%
16:00 +31°C° 0.1 mm 2 mps 714 mmHg 59%
17:00 +30°C° 0.1 mm 1 mps 714 mmHg 63%
18:00 +29°C° 0.1 mm 1 mps 713 mmHg 68%
19:00 +27°C° 0.1 mm 2 mps 714 mmHg 73%
20:00 +26°C° 0.1 mm 2 mps 714 mmHg 78%
21:00 +24°C° 0.1 mm 2 mps 714 mmHg 82%
22:00 +23°C° 0.4 mm 2 mps 714 mmHg 85%
23:00 +23°C° 0.4 mm 2 mps 714 mmHg 87%

23 January, Saturday

Time Temperature Precipitation Wind Pressure Humidity
00:00 +21°C° 0.4 mm 2 mps 715 mmHg 90%
01:00 +21°C° 0.1 mm 2 mps 714 mmHg 90%
02:00 +21°C° 0.1 mm 2 mps 714 mmHg 90%
03:00 +21°C° 0.1 mm 2 mps 714 mmHg 91%
04:00 +21°C° 0 mm 2 mps 714 mmHg 91%
05:00 +21°C° 0 mm 2 mps 714 mmHg 92%
06:00 +21°C° 0 mm 2 mps 714 mmHg 92%
07:00 +22°C° 0 mm 3 mps 715 mmHg 86%
08:00 +24°C° 0 mm 3 mps 715 mmHg 80%
09:00 +26°C° 0 mm 4 mps 716 mmHg 74%
10:00 +27°C° 0 mm 4 mps 716 mmHg 69%
11:00 +29°C° 0 mm 4 mps 716 mmHg 64%
12:00 +30°C° 0 mm 4 mps 715 mmHg 59%
13:00 +31°C° 0.3 mm 3 mps 715 mmHg 58%
14:00 +31°C° 0.3 mm 3 mps 714 mmHg 56%
15:00 +32°C° 0.3 mm 2 mps 713 mmHg 54%
16:00 +31°C° 0.2 mm 2 mps 713 mmHg 60%
17:00 +30°C° 0.2 mm 2 mps 713 mmHg 66%
18:00 +29°C° 0.2 mm 1 mps 712 mmHg 72%
19:00 +27°C° 0.1 mm 1 mps 713 mmHg 75%
20:00 +26°C° 0.1 mm 1 mps 713 mmHg 77%
21:00 +25°C° 0.1 mm 1 mps 713 mmHg 80%
22:00 +24°C° 0.1 mm 2 mps 713 mmHg 81%
23:00 +24°C° 0.1 mm 2 mps 714 mmHg 83%
Show more

We Need Your Consent

Meteoprog and our Service Providers may store and access personal data such as cookies, device identifiers or other similar technologies on your device and process such data to personalise content and ads, as well as provide social media features and to analyse the traffic.

  • Store and/or access information on your device

    Cookies, device identifiers or other information can be stored or accessed on your device for the purposes indicated above.

  • Personalised ads and content, ad and content measurement, audience insights, and products development

    Ads and content can be personalised based on a profile. More data can be added to better personalise ads and content. Ad and content performance can be measured. Insights about the audience who saw the ads and content can be derived. Such data can be used to develop or improve user’s experience, systems and software.

By clicking ‘I Agree’ you will allow the use of indicated cookies, device identifiers, web beacons or other similar technologies. Your settings can be changed in the browser on your device.

For certain purposes, legitimate interests may be relied on, rather than consent. You can read more about this in our Privacy and Cookie Policy.